Flag for Canada Weather past 2 weeks in Brandon, Manitoba, Canada

Now
75 °F

Sunny.


Feels Like: 78 °F
Forecast: N/A
Wind: 8 mph from Southwest

Location: Brandon

Current Time: Aug 27, 2014 at 4:50:50 PM

Latest Report: Aug 27, 2014 at 4:00 PM


Visibility: 15 mi

Pressure: 30.07 "Hg

Humidity: 50%

Dew point: 55 °F

Location of BrandonLocation

Historic Weather in Brandon — Graph

°F

Brandon temperature yesterday

Maximum temperature yesterday: 66 °F (at 4:00 PM)
Minimum temperature yesterday: 37 °F (at 7:00 AM)
Average temperature yesterday: 53 °F

Past Weeks' High & Low Weather Summary

 TemperatureHumidityPressure
High88 °F (Aug 15, 4:00 PM)100% (Aug 15, 5:00 AM)30.23 "Hg (Aug 15, 5:00 AM)
Low37 °F (Aug 26, 7:00 AM)40% (Aug 14, 3:00 PM)29.65 "Hg (Aug 24, 5:48 PM)
Average63 °F82%29.93 "Hg
* Reported Aug 12 3:00 PM — Aug 27 3:00 PM, Brandon, Weather by CustomWeather, © 2014

Note: Actual official high and low records may vary slightly from our data, if they occured in-between our weather recording intervals... More about our weather records

Advertising

Brandon weather history for previous 24 hours

 ConditionsComfort  
Time TempWeatherWind HumidityBarometerVisibility
3:00 PM
Aug 27
73 °FSunny.14 mph53%30.09 "Hg15 mi
2:00 PM73 °FSunny.13 mph50%30.10 "Hg15 mi
12:00 PM70 °FSunny.15 mph60%30.13 "Hg15 mi
11:00 AM66 °FSunny.12 mph68%30.14 "Hg15 mi
10:00 AM61 °FSunny.6 mph83%30.15 "Hg15 mi
9:00 AM55 °FPassing clouds.6 mph88%30.15 "Hg15 mi
8:00 AM48 °FPassing clouds.2 mph100%30.15 "Hg15 mi
7:00 AM45 °FPassing clouds.5 mph100%30.15 "Hg15 mi
6:00 AM46 °FPassing clouds.5 mph93%30.15 "Hg15 mi
5:00 AM46 °FClear.3 mph93%30.15 "Hg15 mi
4:00 AM45 °FClear.5 mph93%30.16 "Hg15 mi
3:00 AM46 °FClear.5 mph93%30.16 "Hg15 mi
2:00 AM46 °FClear.3 mph93%30.16 "Hg15 mi
1:00 AM48 °FClear.No wind87%30.16 "Hg15 mi
12:00 AM48 °FClear.No wind94%30.16 "Hg15 mi
11:00 PM
Aug 26
52 °FClear.3 mph88%30.15 "Hg15 mi
10:00 PM54 °FClear.7 mph88%30.15 "Hg15 mi
9:00 PM55 °FPassing clouds.6 mph82%30.14 "Hg15 mi
8:00 PM63 °FPassing clouds.5 mph68%30.14 "Hg15 mi
7:00 PM66 °FScattered clouds.5 mph49%30.14 "Hg15 mi
6:00 PM66 °FScattered clouds.8 mph52%30.15 "Hg15 mi
5:00 PM66 °FPartly sunny.10 mph49%30.15 "Hg15 mi
4:00 PM66 °FBroken clouds.15 mph46%30.15 "Hg15 mi
Weather by CustomWeather, © 2014

See weather overviewHow to use our weather pages